| time (UTC) | temp F | wind direction | speed MPH | gust MPH | rain 1hr in | rain 24hr in | rain mn in | humidity % | barometer mb |
| 20260504060115 | 60 | 252 | 6.0 | 11.0 | 0.00 | 0.00 | 0.00 | 76 | 1014.8 |
| 20260504050012 | 60 | 242 | 3.0 | 7.0 | 0.00 | 0.00 | 0.00 | 78 | 1015.0 |
| 20260504044522 | 61 | 261 | 2.0 | 7.0 | 0.00 | 0.00 | 0.00 | 78 | 1014.9 |
| 20260504043016 | 61 | 295 | 2.0 | 5.0 | 0.00 | 0.00 | 0.00 | 76 | 1014.9 |
| 20260504041510 | 61 | 254 | 2.0 | 7.0 | 0.00 | 0.00 | 0.00 | 75 | 1014.9 |
| 20260504040009 | 61 | 269 | 3.0 | 5.0 | 0.00 | 0.00 | 0.00 | 74 | 1014.7 |
| 20260504034507 | 61 | 277 | 1.0 | 7.0 | 0.00 | 0.00 | 0.00 | 75 | 1014.5 |
| 20260504033007 | 61 | 228 | 4.0 | 8.0 | 0.00 | 0.00 | 0.00 | 76 | 1014.4 |
| 20260504031507 | 61 | 222 | 5.0 | 8.0 | 0.00 | 0.00 | 0.00 | 77 | 1014.3 |
| 20260504030007 | 61 | 260 | 6.0 | 11.0 | 0.00 | 0.00 | 0.00 | 77 | 1013.8 |
| 20260504024508 | 61 | 267 | 7.0 | 12.0 | 0.00 | 0.00 | 0.00 | 76 | 1013.8 |
| 20260504023004 | 61 | 246 | 8.0 | 13.0 | 0.00 | 0.00 | 0.00 | 76 | 1013.8 |
| 20260504021506 | 61 | 255 | 10.0 | 14.0 | 0.00 | 0.00 | 0.00 | 76 | 1013.6 |
| 20260504020002 | 61 | 267 | 9.0 | 12.0 | 0.00 | 0.00 | 0.00 | 76 | 1013.3 |
| 20260504014501 | 62 | 261 | 7.0 | 13.0 | 0.00 | 0.00 | 0.00 | 73 | 1013.2 |
| 20260504013104 | 62 | 228 | 7.0 | 13.0 | 0.00 | 0.00 | 0.00 | 71 | 1013.2 |
| 20260504011605 | 62 | 254 | 8.0 | 13.0 | 0.00 | 0.00 | 0.00 | 71 | 1013.2 |
| 20260504010101 | 62 | 252 | 9.0 | 14.0 | 0.00 | 0.00 | 0.00 | 69 | 1013.1 |
| 20260504004600 | 63 | 232 | 8.0 | 13.0 | 0.00 | 0.00 | 0.00 | 70 | 1012.8 |
| 20260504003100 | 63 | 256 | 10.0 | 14.0 | 0.00 | 0.00 | 0.00 | 68 | 1012.9 |
| 20260504001606 | 63 | 251 | 6.0 | 13.0 | 0.00 | 0.00 | 0.00 | 69 | 1012.9 |
| 20260504000054 | 63 | 224 | 8.0 | 14.0 | 0.00 | 0.00 | 0.00 | 70 | 1012.7 |
| 20260503234551 | 63 | 236 | 9.0 | 13.0 | 0.00 | 0.00 | 0.00 | 74 | 1012.7 |
| 20260503233049 | 62 | 239 | 8.0 | 15.0 | 0.00 | 0.00 | 0.00 | 75 | 1012.5 |
| 20260503231547 | 62 | 267 | 10.0 | 15.0 | 0.00 | 0.00 | 0.00 | 78 | 1013.0 |
| 20260503230045 | 63 | 284 | 9.0 | 16.0 | 0.00 | 0.00 | 0.00 | 76 | 1013.1 |
| 20260503224543 | 64 | 257 | 8.0 | 16.0 | 0.00 | 0.00 | 0.00 | 73 | 1013.2 |
| 20260503223041 | 63 | 265 | 7.0 | 15.0 | 0.00 | 0.00 | 0.00 | 71 | 1013.4 |
| 20260503221540 | 63 | 226 | 8.0 | 15.0 | 0.00 | 0.00 | 0.00 | 70 | 1013.5 |
| 20260503220046 | 63 | 227 | 7.0 | 14.0 | 0.00 | 0.00 | 0.00 | 69 | 1013.5 |
| 20260503214536 | 63 | 261 | 6.0 | 15.0 | 0.00 | 0.00 | 0.00 | 69 | 1013.7 |
| 20260503213035 | 64 | 248 | 8.0 | 15.0 | 0.00 | 0.00 | 0.00 | 69 | 1013.8 |
| 20260503211533 | 63 | 259 | 9.0 | 16.0 | 0.00 | 0.00 | 0.00 | 69 | 1013.7 |
| 20260503210032 | 63 | 280 | 9.0 | 16.0 | 0.00 | 0.00 | 0.00 | 67 | 1013.7 |
| 20260503204531 | 64 | 265 | 8.0 | 14.0 | 0.00 | 0.00 | 0.00 | 67 | 1013.7 |
| 20260503203033 | 64 | 255 | 7.0 | 14.0 | 0.00 | 0.00 | 0.00 | 64 | 1013.8 |
| 20260503201533 | 67 | 229 | 6.0 | 10.0 | 0.00 | 0.00 | 0.00 | 56 | 1013.8 |
| 20260503200028 | 66 | 240 | 6.0 | 10.0 | 0.00 | 0.00 | 0.00 | 52 | 1013.9 |
| 20260503194525 | 66 | 209 | 6.0 | 12.0 | 0.00 | 0.00 | 0.00 | 56 | 1014.0 |
| 20260503193029 | 66 | 205 | 4.0 | 9.0 | 0.00 | 0.00 | 0.00 | 59 | 1014.2 |
| 20260503191521 | 65 | 243 | 5.0 | 11.0 | 0.00 | 0.00 | 0.00 | 62 | 1014.3 |
| 20260503190020 | 65 | 248 | 4.0 | 9.0 | 0.00 | 0.00 | 0.00 | 63 | 1014.4 |
| 20260503184516 | 63 | 228 | 8.0 | 12.0 | 0.00 | 0.00 | 0.00 | 65 | 1014.6 |
| 20260503183014 | 64 | 260 | 5.0 | 11.0 | 0.00 | 0.00 | 0.00 | 64 | 1014.7 |
| 20260503181510 | 63 | 186 | 7.0 | 13.0 | 0.00 | 0.00 | 0.00 | 68 | 1014.7 |
| 20260503180016 | 63 | 271 | 6.0 | 12.0 | 0.00 | 0.00 | 0.00 | 70 | 1014.7 |
| 20260503174505 | 62 | 222 | 6.0 | 11.0 | 0.00 | 0.00 | 0.00 | 71 | 1014.7 |
| 20260503173003 | 62 | 246 | 7.0 | 10.0 | 0.00 | 0.00 | 0.00 | 72 | 1014.7 |
| 20260503171502 | 62 | 246 | 6.0 | 10.0 | 0.00 | 0.00 | 0.00 | 71 | 1014.6 |
| 20260503081512 | 60 | 218 | 3.0 | 9.0 | 0.00 | 0.00 | 0.00 | 82 | 1013.5 |
| 20260503071507 | 60 | 219 | 2.0 | 6.0 | 0.00 | 0.00 | 0.00 | 84 | 1013.2 |